This is the latest recevied weather packets stored in our database for station/object EA7OC-10. If no packets are shown the sender has not sent any weather packets the latest 10 day(s).
| Time | Temp. | Humidity | Pressure | Rain* | Wind** | Luminosity | Snow |
|---|---|---|---|---|---|---|---|
| 1788540218 | 49.44° C | 22% | 1017.1 hPa | - | - | - | - |
| 1788539317 | 49.44° C | 21% | 1017.2 hPa | - | - | - | - |
| 1788538417 | 49.44° C | 22% | 1017.4 hPa | - | - | - | - |
| 1788537517 | 48.89° C | 21% | 1017.5 hPa | - | - | - | - |
| 1788536617 | 48.89° C | 21% | 1017.5 hPa | - | - | - | - |
| 1788535455 | 48.33° C | 21% | 1017.6 hPa | - | - | - | - |
| 1788534555 | 50° C | 21% | 1017.8 hPa | - | - | - | - |
| 1788533655 | 50° C | 23% | 1018 hPa | - | - | - | - |
| 1788532755 | 49.44° C | 22% | 1018.3 hPa | - | - | - | - |
| 1788531855 | 50° C | 22% | 1018.5 hPa | - | - | - | - |
| 1788530955 | 48.33° C | 23% | 1018.8 hPa | - | - | - | - |
| 1788530055 | 46.67° C | 22% | 1019 hPa | - | - | - | - |
| 1788529165 | 47.22° C | 23% | 1019.1 hPa | - | - | - | - |
| 1788528254 | 45.56° C | 22% | 1019.5 hPa | - | - | - | - |
| 1788527354 | 45° C | 22% | 1019.7 hPa | - | - | - | - |
| 1788526454 | 44.44° C | 23% | 1019.8 hPa | - | - | - | - |
| 1788525553 | 43.33° C | 22% | 1020.1 hPa | - | - | - | - |
| 1788524653 | 45° C | 22% | 1020.4 hPa | - | - | - | - |
| 1788523753 | 44.44° C | 23% | 1020.5 hPa | - | - | - | - |
| 1788522853 | 43.89° C | 23% | 1020.7 hPa | - | - | - | - |
| 1788521953 | 42.78° C | 22% | 1021 hPa | - | - | - | - |
| 1788521053 | 42.78° C | 23% | 1021.2 hPa | - | - | - | - |
| 1788520150 | 43.33° C | 23% | 1021.5 hPa | - | - | - | - |
| 1788519249 | 42.22° C | 22% | 1021.7 hPa | - | - | - | - |
| 1788518349 | 43.89° C | 22% | 1021.7 hPa | - | - | - | - |
* Rain since midnight (hover to see other rain measurements)
** Current wind speed in m/s (hover to see current wind gust speed)